Weather History for Palacios, TX

Change the Weather History Date:

Saturday, February 9, 2013

  Actual Average Record
Temperature  
Mean Temperature 64 °F -  
Max Temperature 72 °F 61 °F 88 °F (1962)
Min Temperature 55 °F 42 °F 28 °F (1967)
Degree Days  
Heating Degree Days 2    
Growing Degree Days 14 (Base 50)    
Moisture  
Dew Point 62 °F    
Average Humidity 84    
Maximum Humidity 94    
Minimum Humidity 71    
Precipitation  
Precipitation 0.00 in - - ()
Sea Level Pressure  
Sea Level Pressure 29.95 in    
Wind  
Wind Speed 13 mph (ESE)    
Max Wind Speed 24 mph    
Max Gust Speed 30 mph    
Visibility 8 miles    
Events      
Averages and records for this station are not official NWS values.
T = Trace of Precipitation, MM = Missing Value Source: NWS Daily Summary

Daily Weather History Graph

Daily Weather History Graph

Search for Another Location

Airport:

Trip Planner

Search our weather history database for the weather conditions in past years. The results will help you decide how hot, cold, wet, or windy it might be!

Date:

Astronomy

Feb. 09, 2013 Rise Set
Actual Time 7:07 AM CST 6:10 PM CST
Civil Twilight 6:43 AM CST 6:35 PM CST
Nautical Twilight 6:15 AM CST 7:03 PM CST
Astronomical Twilight 5:47 AM CST 7:30 PM CST
Moon 6:21 AM CST (2/9) 5:51 PM CST (2/9)
Length of Visible Light 11h 51m
Length of Day
11h 03m
Waning Crescent, 0% of the Moon is Illuminated
Feb 9
Waning Crescent
Feb 10
New
Feb 17
First Quarter
Feb 25
Full
Mar 4
Last Quarter

Hourly Weather History & Observations

Time (CST) Temp. Dew Point Humidity Pressure Visibility Wind Dir Wind Speed Gust Speed Precip Events Conditions
12:53 AM 59.0 °F 55.0 °F 87% 30.09 in 10.0 mi East 9.2 mph - N/A   Clear
1:53 AM 55.9 °F 53.1 °F 90% 30.08 in 6.0 mi ENE 6.9 mph - N/A   Clear
2:53 AM 55.9 °F 53.1 °F 90% 30.08 in 8.0 mi ENE 5.8 mph - N/A   Mostly Cloudy
3:53 AM 55.9 °F 53.1 °F 90% 30.08 in 7.0 mi NE 5.8 mph - N/A   Mostly Cloudy
4:06 AM 55.4 °F 51.8 °F 88% 30.07 in 6.0 mi NE 8.1 mph - N/A   Scattered Clouds
4:34 AM 55.4 °F 53.6 °F 94% 30.06 in 5.0 mi ENE 8.1 mph - N/A   Scattered Clouds
4:53 AM 55.9 °F 54.0 °F 93% 30.06 in 6.0 mi ENE 8.1 mph - N/A   Scattered Clouds
5:32 AM 57.2 °F 55.4 °F 94% 30.06 in 6.0 mi ENE 8.1 mph - N/A   Mostly Cloudy
5:53 AM 57.9 °F 55.9 °F 93% 30.05 in 7.0 mi ENE 10.4 mph - N/A   Overcast
6:46 AM 60.8 °F 57.2 °F 88% 30.06 in 7.0 mi East 11.5 mph - N/A   Overcast
6:53 AM 61.0 °F 57.0 °F 87% 30.06 in 7.0 mi East 11.5 mph - N/A   Overcast
7:53 AM 61.0 °F 57.9 °F 90% 30.06 in 6.0 mi East 13.8 mph - N/A   Overcast
8:53 AM 63.0 °F 59.0 °F 87% 30.06 in 8.0 mi East 12.7 mph 20.7 mph N/A   Scattered Clouds
9:53 AM 66.9 °F 61.0 °F 81% 30.06 in 10.0 mi East 15.0 mph 21.9 mph N/A   Overcast
10:53 AM 70.0 °F 60.1 °F 71% 30.05 in 10.0 mi ESE 19.6 mph 25.3 mph N/A   Overcast
11:53 AM 70.0 °F 60.1 °F 71% 30.03 in 10.0 mi ESE 17.3 mph - N/A   Overcast
12:53 PM 70.0 °F 61.0 °F 73% 29.99 in 10.0 mi ESE 17.3 mph - N/A   Overcast
1:08 PM 69.8 °F 60.8 °F 73% 29.98 in 10.0 mi ESE 18.4 mph 27.6 mph N/A   Overcast
1:19 PM 69.8 °F 60.8 °F 73% 29.97 in 10.0 mi ESE 18.4 mph - N/A   Overcast
1:53 PM 71.1 °F 62.1 °F 73% 29.95 in 10.0 mi ESE 16.1 mph 24.2 mph N/A   Overcast
2:22 PM 71.6 °F 62.6 °F 73% 29.93 in 10.0 mi ESE 17.3 mph 26.5 mph N/A   Overcast
2:50 PM 71.6 °F 62.6 °F 73% 29.92 in 10.0 mi SE 19.6 mph 26.5 mph N/A   Overcast
2:53 PM 72.0 °F 63.0 °F 73% 29.92 in 10.0 mi SE 19.6 mph - N/A   Overcast
3:03 PM 71.6 °F 64.4 °F 78% 29.92 in 10.0 mi SE 24.2 mph 29.9 mph N/A   Overcast
3:53 PM 71.1 °F 64.0 °F 78% 29.90 in 9.0 mi SE 18.4 mph - N/A   Overcast
4:10 PM 71.6 °F 64.4 °F 78% 29.89 in 9.0 mi SE 19.6 mph - N/A   Overcast
4:43 PM 71.6 °F 64.4 °F 78% 29.88 in 9.0 mi SE 18.4 mph 25.3 mph N/A   Overcast
4:53 PM 71.1 °F 64.9 °F 81% 29.88 in 8.0 mi SE 20.7 mph - N/A   Overcast
5:53 PM 71.1 °F 64.9 °F 81% 29.86 in 8.0 mi SE 19.6 mph - N/A   Overcast
6:46 PM 69.8 °F 66.2 °F 88% 29.87 in 8.0 mi SE 16.1 mph 24.2 mph N/A   Overcast
6:53 PM 70.0 °F 66.0 °F 87% 29.87 in 8.0 mi SE 15.0 mph - N/A   Overcast
7:53 PM 70.0 °F 66.0 °F 87% 29.88 in 8.0 mi SE 12.7 mph - N/A   Overcast
8:53 PM 71.1 °F 66.0 °F 84% 29.88 in 8.0 mi SE 17.3 mph - N/A   Overcast
9:11 PM 69.8 °F 66.2 °F 88% 29.88 in 8.0 mi SE 16.1 mph - N/A   Overcast
9:37 PM 69.8 °F 66.2 °F 88% 29.88 in 7.0 mi SE 17.3 mph - N/A   Overcast
9:50 PM 69.8 °F 66.2 °F 88% 29.88 in 7.0 mi SE 15.0 mph - N/A   Overcast
9:53 PM 70.0 °F 66.9 °F 90% 29.88 in 7.0 mi SE 15.0 mph - N/A   Overcast
10:23 PM 69.8 °F 66.2 °F 88% 29.86 in 6.0 mi SE 16.1 mph - N/A   Overcast
10:45 PM 69.8 °F 66.2 °F 88% 29.87 in 6.0 mi SSE 17.3 mph - N/A   Overcast
10:53 PM 70.0 °F 66.9 °F 90% 29.86 in 6.0 mi SSE 19.6 mph - N/A   Overcast
11:29 PM 69.8 °F 66.2 °F 88% 29.85 in 6.0 mi SSE 18.4 mph - N/A   Mostly Cloudy
11:39 PM 69.8 °F 66.2 °F 88% 29.85 in 6.0 mi SSE 19.6 mph 25.3 mph N/A   Overcast
11:49 PM 69.8 °F 66.2 °F 88% 29.85 in 6.0 mi SSE 18.4 mph - N/A   Overcast
11:53 PM 70.0 °F 66.9 °F 90% 29.85 in 6.0 mi SSE 18.4 mph - N/A   Overcast